Time,TemperatureF,DewpointF,PressureIn,WindDirection,WindDirectionDegrees,WindSpeedMPH,WindSpeedGustMPH,Humidity,HourlyPrecipIn,Conditions,Clouds,dailyrainin,SoftwareType,DateUTC
2013-11-26 00:02:00,31.7,0.0,30.11,WNW,293,1.1,2.2,0,0.00,,,0.00,WUHU216HW,2013-11-26 06:02:00,
2013-11-26 00:07:00,31.5,0.0,30.11,NNW,327,0.6,2.5,0,0.00,,,0.00,WUHU216HW,2013-11-26 06:07:00,
2013-11-26 00:12:00,31.3,0.0,30.11,North,0,0.4,2.5,0,0.00,,,0.00,WUHU216HW,2013-11-26 06:12:00,
2013-11-26 00:17:00,31.0,0.0,30.11,NNW,338,0.4,0.9,0,0.00,,,0.00,WUHU216HW,2013-11-26 06:17:00,
2013-11-26 00:22:00,30.6,0.0,30.11,NNW,338,0.0,0.4,0,0.00,,,0.00,WUHU216HW,2013-11-26 06:22:00,
2013-11-26 00:27:00,30.6,0.0,30.11,NNW,338,0.4,0.7,0,0.00,,,0.00,WUHU216HW,2013-11-26 06:27:00,
2013-11-26 00:32:00,30.4,0.0,30.11,NNW,338,0.4,0.9,0,0.00,,,0.00,WUHU216HW,2013-11-26 06:32:00,
2013-11-26 00:37:00,30.6,0.0,30.10,West,270,2.5,2.5,0,0.00,,,0.00,WUHU216HW,2013-11-26 06:37:00,
2013-11-26 00:42:00,30.8,0.0,30.10,NNW,338,2.0,3.4,0,0.00,,,0.00,WUHU216HW,2013-11-26 06:42:00,
2013-11-26 00:47:00,31.0,0.0,30.11,NW,315,1.1,3.4,0,0.00,,,0.00,WUHU216HW,2013-11-26 06:47:00,
2013-11-26 00:52:00,30.8,0.0,30.11,NW,308,1.0,1.8,0,0.00,,,0.00,WUHU216HW,2013-11-26 06:52:00,
2013-11-26 00:57:00,30.4,0.0,30.11,WNW,293,1.1,1.8,0,0.00,,,0.00,WUHU216HW,2013-11-26 06:57:00,
2013-11-26 01:02:00,30.2,0.0,30.11,NW,315,1.6,2.0,0,0.00,,,0.00,WUHU216HW,2013-11-26 07:02:00,
2013-11-26 01:07:00,29.9,0.0,30.11,West,279,1.2,2.5,0,0.00,,,0.00,WUHU216HW,2013-11-26 07:07:00,
2013-11-26 01:12:00,29.7,0.0,30.11,West,270,1.8,2.5,0,0.00,,,0.00,WUHU216HW,2013-11-26 07:12:00,
2013-11-26 01:17:00,29.3,0.0,30.11,WNW,283,1.4,2.5,0,0.00,,,0.00,WUHU216HW,2013-11-26 07:17:00,
2013-11-26 01:22:00,29.2,0.0,30.10,West,270,1.3,2.5,0,0.00,,,0.00,WUHU216HW,2013-11-26 07:22:00,
2013-11-26 01:27:00,29.0,0.0,30.10,NW,315,0.6,1.8,0,0.00,,,0.00,WUHU216HW,2013-11-26 07:27:00,
2013-11-26 01:32:00,28.8,0.0,30.10,WNW,293,1.3,2.2,0,0.00,,,0.00,WUHU216HW,2013-11-26 07:32:00,
2013-11-26 01:37:00,28.8,0.0,30.10,WNW,289,1.4,2.2,0,0.00,,,0.00,WUHU216HW,2013-11-26 07:37:00,
2013-11-26 01:42:00,28.8,0.0,30.11,West,270,0.7,2.7,0,0.00,,,0.00,WUHU216HW,2013-11-26 07:42:00,
2013-11-26 01:47:00,28.6,0.0,30.11,WNW,293,0.5,2.7,0,0.00,,,0.00,WUHU216HW,2013-11-26 07:47:00,
2013-11-26 01:52:00,28.4,0.0,30.11,WNW,293,1.1,1.3,0,0.00,,,0.00,WUHU216HW,2013-11-26 07:52:00,
2013-11-26 01:57:00,28.3,0.0,30.11,WNW,293,0.7,1.6,0,0.00,,,0.00,WUHU216HW,2013-11-26 07:57:00,
2013-11-26 02:02:00,28.3,0.0,30.11,West,270,0.9,1.6,0,0.00,,,0.00,WUHU216HW,2013-11-26 08:02:00,
2013-11-26 02:07:00,28.1,0.0,30.11,NNW,338,0.9,1.3,0,0.00,,,0.00,WUHU216HW,2013-11-26 08:07:00,
2013-11-26 02:12:00,28.1,0.0,30.11,West,270,0.8,1.3,0,0.00,,,0.00,WUHU216HW,2013-11-26 08:12:00,
2013-11-26 02:17:00,28.1,0.0,30.11,WNW,293,0.7,1.8,0,0.00,,,0.00,WUHU216HW,2013-11-26 08:17:00,
2013-11-26 02:22:00,27.9,0.0,30.11,West,270,0.6,1.8,0,0.00,,,0.00,WUHU216HW,2013-11-26 08:22:00,
2013-11-26 02:27:00,27.9,0.0,30.11,West,270,1.3,2.0,0,0.00,,,0.00,WUHU216HW,2013-11-26 08:27:00,
2013-11-26 02:32:00,28.1,0.0,30.11,West,276,1.2,2.0,0,0.00,,,0.00,WUHU216HW,2013-11-26 08:32:00,
2013-11-26 02:37:00,28.3,0.0,30.11,WNW,293,1.3,2.0,0,0.00,,,0.00,WUHU216HW,2013-11-26 08:37:00,
2013-11-26 02:42:00,28.4,0.0,30.11,WNW,298,1.6,2.9,0,0.00,,,0.00,WUHU216HW,2013-11-26 08:42:00,
2013-11-26 02:47:00,28.3,0.0,30.11,West,270,1.1,2.9,0,0.00,,,0.00,WUHU216HW,2013-11-26 08:47:00,
2013-11-26 02:52:00,28.1,0.0,30.11,NNW,338,1.1,1.8,0,0.00,,,0.00,WUHU216HW,2013-11-26 08:52:00,
2013-11-26 02:57:00,27.9,0.0,30.11,North,0,2.7,2.7,0,0.00,,,0.00,WUHU216HW,2013-11-26 08:57:00,
2013-11-26 03:02:00,27.9,0.0,30.11,NW,310,1.0,2.7,0,0.00,,,0.00,WUHU216HW,2013-11-26 09:02:00,
2013-11-26 03:07:00,27.9,0.0,30.11,West,259,0.6,2.0,0,0.00,,,0.00,WUHU216HW,2013-11-26 09:07:00,
2013-11-26 03:12:00,27.7,0.0,30.11,WNW,293,0.7,2.0,0,0.00,,,0.00,WUHU216HW,2013-11-26 09:12:00,
2013-11-26 03:17:00,27.4,0.0,30.11,NNW,344,0.6,2.2,0,0.00,,,0.00,WUHU216HW,2013-11-26 09:17:00,
2013-11-26 03:22:00,27.0,0.0,30.11,SW,228,0.6,2.2,0,0.00,,,0.00,WUHU216HW,2013-11-26 09:22:00,
2013-11-26 03:27:00,26.8,0.0,30.11,West,270,2.0,2.0,0,0.00,,,0.00,WUHU216HW,2013-11-26 09:27:00,
2013-11-26 03:32:00,26.6,0.0,30.11,WNW,300,1.6,2.9,0,0.00,,,0.00,WUHU216HW,2013-11-26 09:32:00,
2013-11-26 03:37:00,26.5,0.0,30.11,NNW,338,0.7,2.9,0,0.00,,,0.00,WUHU216HW,2013-11-26 09:37:00,
2013-11-26 03:42:00,26.3,0.0,30.11,NW,315,1.1,2.0,0,0.00,,,0.00,WUHU216HW,2013-11-26 09:42:00,
2013-11-26 03:47:00,26.3,0.0,30.11,West,270,1.1,2.0,0,0.00,,,0.00,WUHU216HW,2013-11-26 09:47:00,
2013-11-26 03:52:00,26.1,0.0,30.11,NNW,348,1.1,2.2,0,0.00,,,0.00,WUHU216HW,2013-11-26 09:52:00,
2013-11-26 03:57:00,26.1,0.0,30.11,NW,315,1.1,2.2,0,0.00,,,0.00,WUHU216HW,2013-11-26 09:57:00,
2013-11-26 04:02:00,26.1,0.0,30.11,NNW,338,0.9,2.2,0,0.00,,,0.00,WUHU216HW,2013-11-26 10:02:00,
2013-11-26 04:07:00,26.1,0.0,30.11,NNW,329,1.2,2.2,0,0.00,,,0.00,WUHU216HW,2013-11-26 10:07:00,
2013-11-26 04:12:00,26.3,0.0,30.11,West,270,1.8,2.9,0,0.00,,,0.00,WUHU216HW,2013-11-26 10:12:00,
2013-11-26 04:17:00,26.3,0.0,30.12,NNW,337,1.2,2.9,0,0.00,,,0.00,WUHU216HW,2013-11-26 10:17:00,
2013-11-26 04:22:00,26.1,0.0,30.12,NW,315,1.1,2.9,0,0.00,,,0.00,WUHU216HW,2013-11-26 10:22:00,
2013-11-26 04:27:00,25.9,0.0,30.12,West,270,0.7,2.5,0,0.00,,,0.00,WUHU216HW,2013-11-26 10:27:00,
2013-11-26 04:32:00,25.7,0.0,30.12,NNW,338,0.9,2.5,0,0.00,,,0.00,WUHU216HW,2013-11-26 10:32:00,
2013-11-26 04:37:00,25.7,0.0,30.12,WNW,301,1.5,3.4,0,0.00,,,0.00,WUHU216HW,2013-11-26 10:37:00,
2013-11-26 04:42:00,25.9,0.0,30.12,North,0,2.2,3.6,0,0.00,,,0.00,WUHU216HW,2013-11-26 10:42:00,
2013-11-26 04:47:00,25.9,0.0,30.12,West,270,1.6,4.7,0,0.00,,,0.00,WUHU216HW,2013-11-26 10:47:00,
2013-11-26 04:52:00,26.1,0.0,30.12,NNW,334,1.1,4.7,0,0.00,,,0.00,WUHU216HW,2013-11-26 10:52:00,
2013-11-26 04:57:00,26.3,0.0,30.12,NNW,329,2.2,4.5,0,0.00,,,0.00,WUHU216HW,2013-11-26 10:57:00,
2013-11-26 05:02:00,26.5,0.0,30.12,NW,315,3.8,4.5,0,0.00,,,0.00,WUHU216HW,2013-11-26 11:02:00,
2013-11-26 05:07:00,27.0,0.0,30.12,NNE,29,3.0,4.7,0,0.00,,,0.00,WUHU216HW,2013-11-26 11:07:00,
2013-11-26 05:12:00,27.0,0.0,30.13,NNW,342,2.6,5.4,0,0.00,,,0.00,WUHU216HW,2013-11-26 11:12:00,
2013-11-26 05:17:00,27.2,0.0,30.13,WNW,293,3.4,5.4,0,0.00,,,0.00,WUHU216HW,2013-11-26 11:17:00,
2013-11-26 05:22:00,27.2,0.0,30.13,WNW,293,3.4,4.7,0,0.00,,,0.00,WUHU216HW,2013-11-26 11:22:00,
2013-11-26 05:27:00,27.2,0.0,30.13,North,0,1.8,4.7,0,0.00,,,0.00,WUHU216HW,2013-11-26 11:27:00,
2013-11-26 05:32:00,27.2,0.0,30.14,NW,318,2.7,4.7,0,0.00,,,0.00,WUHU216HW,2013-11-26 11:32:00,
2013-11-26 05:37:00,27.2,0.0,30.14,North,0,5.4,5.4,0,0.00,,,0.00,WUHU216HW,2013-11-26 11:37:00,
2013-11-26 05:42:00,27.4,0.0,30.14,NW,315,1.8,5.4,0,0.00,,,0.00,WUHU216HW,2013-11-26 11:42:00,
2013-11-26 05:47:00,27.7,0.0,30.14,WNW,284,2.2,5.6,0,0.00,,,0.00,WUHU216HW,2013-11-26 11:47:00,
2013-11-26 05:52:00,27.7,0.0,30.14,North,0,3.8,5.6,0,0.00,,,0.00,WUHU216HW,2013-11-26 11:52:00,
2013-11-26 05:57:00,27.7,0.0,30.14,NNW,338,3.4,4.3,0,0.00,,,0.00,WUHU216HW,2013-11-26 11:57:00,
2013-11-26 06:02:00,28.1,0.0,30.15,WSW,248,1.8,4.5,0,0.00,,,0.00,WUHU216HW,2013-11-26 12:02:00,
2013-11-26 06:07:00,28.3,0.0,30.15,WNW,293,5.1,5.1,0,0.00,,,0.00,WUHU216HW,2013-11-26 12:07:00,
2013-11-26 06:12:00,28.4,0.0,30.15,NW,307,3.7,5.1,0,0.00,,,0.00,WUHU216HW,2013-11-26 12:12:00,
2013-11-26 06:17:00,28.4,0.0,30.15,WNW,290,3.5,5.1,0,0.00,,,0.00,WUHU216HW,2013-11-26 12:17:00,
2013-11-26 06:22:00,28.4,0.0,30.15,WNW,282,4.0,5.1,0,0.00,,,0.00,WUHU216HW,2013-11-26 12:22:00,
2013-11-26 06:27:00,28.3,0.0,30.15,WSW,254,2.1,5.1,0,0.00,,,0.00,WUHU216HW,2013-11-26 12:27:00,
2013-11-26 06:32:00,28.1,0.0,30.15,West,270,4.0,4.3,0,0.00,,,0.00,WUHU216HW,2013-11-26 12:32:00,
2013-11-26 06:37:00,28.1,0.0,30.15,WNW,298,4.3,6.9,0,0.00,,,0.00,WUHU216HW,2013-11-26 12:37:00,
2013-11-26 06:42:00,28.3,0.0,30.16,West,276,1.8,6.9,0,0.00,,,0.00,WUHU216HW,2013-11-26 12:42:00,
2013-11-26 06:47:00,28.6,0.0,30.16,North,351,2.9,4.7,0,0.00,,,0.00,WUHU216HW,2013-11-26 12:47:00,
2013-11-26 06:52:00,29.2,0.0,30.16,NNW,327,2.9,5.8,0,0.00,,,0.00,WUHU216HW,2013-11-26 12:52:00,
2013-11-26 06:57:00,29.2,0.0,30.17,WNW,293,5.4,6.0,0,0.00,,,0.00,WUHU216HW,2013-11-26 12:57:00,
2013-11-26 07:02:00,29.3,0.0,30.17,WNW,298,2.5,6.0,0,0.00,,,0.00,WUHU216HW,2013-11-26 13:02:00,
2013-11-26 07:07:00,29.5,0.0,30.17,NW,325,3.4,5.4,0,0.00,,,0.00,WUHU216HW,2013-11-26 13:07:00,
2013-11-26 07:12:00,29.5,0.0,30.17,NNW,329,3.1,5.1,0,0.00,,,0.00,WUHU216HW,2013-11-26 13:12:00,
2013-11-26 07:17:00,29.5,0.0,30.18,NNE,23,4.3,5.1,0,0.00,,,0.00,WUHU216HW,2013-11-26 13:17:00,
2013-11-26 07:22:00,29.7,0.0,30.18,WNW,293,4.5,4.7,0,0.00,,,0.00,WUHU216HW,2013-11-26 13:22:00,
2013-11-26 07:27:00,29.9,0.0,30.19,NW,319,2.7,4.7,0,0.00,,,0.00,WUHU216HW,2013-11-26 13:27:00,
2013-11-26 07:32:00,29.9,0.0,30.19,NW,324,2.6,4.5,0,0.00,,,0.00,WUHU216HW,2013-11-26 13:32:00,
2013-11-26 07:37:00,29.9,0.0,30.19,North,0,2.7,5.4,0,0.00,,,0.00,WUHU216HW,2013-11-26 13:37:00,
2013-11-26 07:42:00,29.9,0.0,30.19,WNW,300,4.2,6.9,0,0.00,,,0.00,WUHU216HW,2013-11-26 13:42:00,
2013-11-26 07:47:00,29.9,0.0,30.19,WNW,293,3.6,6.9,0,0.00,,,0.00,WUHU216HW,2013-11-26 13:47:00,
2013-11-26 07:52:00,29.9,0.0,30.19,WSW,248,2.2,4.3,0,0.00,,,0.00,WUHU216HW,2013-11-26 13:52:00,
2013-11-26 07:57:00,29.9,0.0,30.19,North,0,4.0,4.3,0,0.00,,,0.00,WUHU216HW,2013-11-26 13:57:00,
2013-11-26 08:02:00,30.1,0.0,30.19,NNW,331,3.5,4.7,0,0.00,,,0.00,WUHU216HW,2013-11-26 14:02:00,
2013-11-26 08:07:00,30.1,0.0,30.19,NW,304,2.8,4.7,0,0.00,,,0.00,WUHU216HW,2013-11-26 14:07:00,
2013-11-26 08:12:00,30.1,0.0,30.19,NNW,347,2.6,6.5,0,0.00,,,0.00,WUHU216HW,2013-11-26 14:12:00,
2013-11-26 08:17:00,30.1,0.0,30.20,NNE,23,4.5,6.5,0,0.00,,,0.00,WUHU216HW,2013-11-26 14:17:00,
2013-11-26 08:22:00,30.2,0.0,30.21,North,355,3.8,5.4,0,0.00,,,0.00,WUHU216HW,2013-11-26 14:22:00,
2013-11-26 08:27:00,30.2,0.0,30.21,WNW,293,3.4,5.6,0,0.00,,,0.00,WUHU216HW,2013-11-26 14:27:00,
2013-11-26 08:32:00,30.4,0.0,30.21,WNW,296,3.6,5.6,0,0.00,,,0.00,WUHU216HW,2013-11-26 14:32:00,
2013-11-26 08:37:00,30.4,0.0,30.21,NW,309,2.9,5.6,0,0.00,,,0.00,WUHU216HW,2013-11-26 14:37:00,
2013-11-26 08:42:00,30.6,0.0,30.21,NNW,338,3.4,6.0,0,0.00,,,0.00,WUHU216HW,2013-11-26 14:42:00,
2013-11-26 08:47:00,30.6,0.0,30.22,WNW,282,4.6,6.3,0,0.00,,,0.00,WUHU216HW,2013-11-26 14:47:00,
2013-11-26 08:52:00,30.6,0.0,30.22,West,268,3.3,6.3,0,0.00,,,0.00,WUHU216HW,2013-11-26 14:52:00,
2013-11-26 08:57:00,30.8,0.0,30.22,NW,309,4.8,5.8,0,0.00,,,0.00,WUHU216HW,2013-11-26 14:57:00,
2013-11-26 09:02:00,30.8,0.0,30.22,WNW,293,7.2,7.8,0,0.00,,,0.00,WUHU216HW,2013-11-26 15:02:00,
2013-11-26 09:07:00,31.0,0.0,30.23,NE,45,4.5,7.8,0,0.00,,,0.00,WUHU216HW,2013-11-26 15:07:00,
2013-11-26 09:12:00,31.1,0.0,30.23,NW,323,3.7,7.6,0,0.00,,,0.00,WUHU216HW,2013-11-26 15:12:00,
2013-11-26 09:17:00,31.1,0.0,30.23,WNW,301,3.7,7.6,0,0.00,,,0.00,WUHU216HW,2013-11-26 15:17:00,
2013-11-26 09:22:00,31.1,0.0,30.23,WNW,291,7.0,8.5,0,0.00,,,0.00,WUHU216HW,2013-11-26 15:22:00,
2013-11-26 09:27:00,31.3,0.0,30.23,WSW,248,6.9,8.5,0,0.00,,,0.00,WUHU216HW,2013-11-26 15:27:00,
2013-11-26 09:32:00,31.3,0.0,30.23,NNW,338,6.3,8.3,0,0.00,,,0.00,WUHU216HW,2013-11-26 15:32:00,
2013-11-26 09:37:00,30.8,0.0,30.24,NW,315,6.3,9.4,0,0.00,,,0.00,WUHU216HW,2013-11-26 15:37:00,
2013-11-26 09:42:00,30.6,0.0,30.24,North,0,6.0,9.4,0,0.00,,,0.00,WUHU216HW,2013-11-26 15:42:00,
2013-11-26 09:47:00,30.2,0.0,30.24,WNW,292,5.0,10.1,0,0.00,,,0.00,WUHU216HW,2013-11-26 15:47:00,
2013-11-26 09:52:00,30.4,0.0,30.24,NNE,23,5.1,10.5,0,0.00,,,0.00,WUHU216HW,2013-11-26 15:52:00,
2013-11-26 09:57:00,30.8,0.0,30.25,NNW,338,6.0,10.5,0,0.00,,,0.00,WUHU216HW,2013-11-26 15:57:00,
2013-11-26 10:02:00,30.6,0.0,30.25,NW,322,6.6,8.3,0,0.00,,,0.00,WUHU216HW,2013-11-26 16:02:00,
2013-11-26 10:07:00,31.3,0.0,30.25,NW,315,4.0,8.3,0,0.00,,,0.00,WUHU216HW,2013-11-26 16:07:00,
2013-11-26 10:12:00,31.5,0.0,30.25,SSE,158,4.5,7.6,0,0.00,,,0.00,WUHU216HW,2013-11-26 16:12:00,
2013-11-26 10:17:00,31.3,0.0,30.25,North,0,4.7,7.6,0,0.00,,,0.00,WUHU216HW,2013-11-26 16:17:00,
2013-11-26 10:22:00,31.3,0.0,30.26,WNW,290,3.0,7.2,0,0.00,,,0.00,WUHU216HW,2013-11-26 16:22:00,
2013-11-26 10:27:00,31.1,0.0,30.26,West,275,4.2,6.9,0,0.00,,,0.00,WUHU216HW,2013-11-26 16:27:00,
2013-11-26 10:32:00,30.8,0.0,30.26,NNE,23,5.1,8.1,0,0.00,,,0.00,WUHU216HW,2013-11-26 16:32:00,
2013-11-26 10:37:00,30.1,0.0,30.26,NNW,338,5.8,8.1,0,0.00,,,0.00,WUHU216HW,2013-11-26 16:37:00,
2013-11-26 10:42:00,29.9,0.0,30.26,West,270,7.2,7.6,0,0.00,,,0.00,WUHU216HW,2013-11-26 16:42:00,
2013-11-26 10:47:00,30.8,0.0,30.27,WNW,299,5.0,7.6,0,0.00,,,0.00,WUHU216HW,2013-11-26 16:47:00,
2013-11-26 10:52:00,29.9,0.0,30.27,West,260,5.8,8.3,0,0.00,,,0.00,WUHU216HW,2013-11-26 16:52:00,
2013-11-26 10:57:00,29.7,0.0,30.27,WNW,301,6.7,10.5,0,0.00,,,0.00,WUHU216HW,2013-11-26 16:57:00,
2013-11-26 11:02:00,30.2,0.0,30.27,West,270,4.3,10.5,0,0.00,,,0.00,WUHU216HW,2013-11-26 17:02:00,
2013-11-26 11:07:00,30.1,0.0,30.27,NNE,23,6.9,7.2,0,0.00,,,0.00,WUHU216HW,2013-11-26 17:07:00,
2013-11-26 11:12:00,29.7,0.0,30.27,NW,321,6.1,9.6,0,0.00,,,0.00,WUHU216HW,2013-11-26 17:12:00,
2013-11-26 11:17:00,29.9,0.0,30.27,NNW,333,5.2,9.6,0,0.00,,,0.00,WUHU216HW,2013-11-26 17:17:00,
2013-11-26 11:22:00,29.2,0.0,30.27,West,270,11.0,11.0,0,0.00,,,0.00,WUHU216HW,2013-11-26 17:22:00,
2013-11-26 11:27:00,29.2,0.0,30.27,WNW,303,5.8,11.0,0,0.00,,,0.00,WUHU216HW,2013-11-26 17:27:00,
2013-11-26 11:32:00,29.3,0.0,30.27,WNW,293,5.4,11.0,0,0.00,,,0.00,WUHU216HW,2013-11-26 17:32:00,
2013-11-26 11:37:00,29.7,0.0,30.27,NNW,342,6.1,10.7,0,0.00,,,0.00,WUHU216HW,2013-11-26 17:37:00,
2013-11-26 11:42:00,29.2,0.0,30.26,WNW,293,4.0,10.7,0,0.00,,,0.00,WUHU216HW,2013-11-26 17:42:00,
2013-11-26 11:47:00,29.3,0.0,30.26,NW,326,4.9,8.9,0,0.00,,,0.00,WUHU216HW,2013-11-26 17:47:00,
2013-11-26 11:52:00,29.3,0.0,30.27,NW,315,8.5,8.5,0,0.00,,,0.00,WUHU216HW,2013-11-26 17:52:00,
2013-11-26 11:57:00,29.2,0.0,30.27,NW,324,6.0,8.7,0,0.00,,,0.00,WUHU216HW,2013-11-26 17:57:00,
2013-11-26 12:02:00,28.8,0.0,30.26,NW,313,5.6,9.6,0,0.00,,,0.00,WUHU216HW,2013-11-26 18:02:00,
2013-11-26 12:07:00,28.6,0.0,30.26,North,0,8.7,9.6,0,0.00,,,0.00,WUHU216HW,2013-11-26 18:07:00,
2013-11-26 12:12:00,28.1,0.0,30.26,NW,317,7.2,10.5,0,0.00,,,0.00,WUHU216HW,2013-11-26 18:12:00,
2013-11-26 12:17:00,28.3,0.0,30.26,NNW,338,8.9,10.5,0,0.00,,,0.00,WUHU216HW,2013-11-26 18:17:00,
2013-11-26 12:22:00,28.3,0.0,30.26,WSW,248,7.6,8.9,0,0.00,,,0.00,WUHU216HW,2013-11-26 18:22:00,
2013-11-26 12:27:00,28.3,0.0,30.27,NNW,343,4.6,8.7,0,0.00,,,0.00,WUHU216HW,2013-11-26 18:27:00,
2013-11-26 12:32:00,27.9,0.0,30.27,North,0,5.8,10.5,0,0.00,,,0.00,WUHU216HW,2013-11-26 18:32:00,
2013-11-26 12:37:00,27.9,0.0,30.27,NW,312,5.7,10.5,0,0.00,,,0.00,WUHU216HW,2013-11-26 18:37:00,
2013-11-26 12:42:00,27.7,0.0,30.27,WNW,301,5.7,8.1,0,0.00,,,0.00,WUHU216HW,2013-11-26 18:42:00,
2013-11-26 12:47:00,27.4,0.0,30.27,NW,326,7.2,8.9,0,0.00,,,0.00,WUHU216HW,2013-11-26 18:47:00,
2013-11-26 12:52:00,27.2,0.0,30.27,WNW,293,6.5,11.0,0,0.00,,,0.00,WUHU216HW,2013-11-26 18:52:00,
2013-11-26 12:57:00,27.4,0.0,30.26,NNW,333,5.3,11.0,0,0.00,,,0.00,WUHU216HW,2013-11-26 18:57:00,
2013-11-26 13:02:00,27.5,0.0,30.27,NW,315,6.6,8.7,0,0.00,,,0.00,WUHU216HW,2013-11-26 19:02:00,
2013-11-26 13:07:00,27.4,0.0,30.26,WNW,290,6.2,9.8,0,0.00,,,0.00,WUHU216HW,2013-11-26 19:07:00,
2013-11-26 13:12:00,27.5,0.0,30.26,WNW,293,6.9,9.8,0,0.00,,,0.00,WUHU216HW,2013-11-26 19:12:00,
2013-11-26 13:17:00,27.7,0.0,30.26,NNW,338,7.8,9.6,0,0.00,,,0.00,WUHU216HW,2013-11-26 19:17:00,
2013-11-26 13:22:00,27.4,0.0,30.26,WSW,248,5.6,8.9,0,0.00,,,0.00,WUHU216HW,2013-11-26 19:22:00,
2013-11-26 13:27:00,27.7,0.0,30.26,WNW,293,4.5,8.5,0,0.00,,,0.00,WUHU216HW,2013-11-26 19:27:00,
2013-11-26 13:32:00,27.5,0.0,30.26,West,269,6.7,8.9,0,0.00,,,0.00,WUHU216HW,2013-11-26 19:32:00,
2013-11-26 13:37:00,27.4,0.0,30.26,NW,315,6.9,8.9,0,0.00,,,0.00,WUHU216HW,2013-11-26 19:37:00,
2013-11-26 13:42:00,27.4,0.0,30.26,WNW,287,5.7,9.8,0,0.00,,,0.00,WUHU216HW,2013-11-26 19:42:00,
2013-11-26 13:47:00,27.5,0.0,30.26,WNW,293,4.9,9.8,0,0.00,,,0.00,WUHU216HW,2013-11-26 19:47:00,
2013-11-26 13:52:00,27.4,0.0,30.25,WNW,303,5.5,8.1,0,0.00,,,0.00,WUHU216HW,2013-11-26 19:52:00,
2013-11-26 13:57:00,27.7,0.0,30.25,NNE,28,5.0,8.1,0,0.00,,,0.00,WUHU216HW,2013-11-26 19:57:00,
2013-11-26 14:02:00,27.7,0.0,30.26,NNW,327,5.2,9.6,0,0.00,,,0.00,WUHU216HW,2013-11-26 20:02:00,
2013-11-26 14:07:00,27.7,0.0,30.26,West,270,5.4,9.6,0,0.00,,,0.00,WUHU216HW,2013-11-26 20:07:00,
2013-11-26 14:12:00,27.9,0.0,30.25,WNW,293,6.5,8.5,0,0.00,,,0.00,WUHU216HW,2013-11-26 20:12:00,
2013-11-26 14:17:00,27.5,0.0,30.25,NNE,28,4.2,9.8,0,0.00,,,0.00,WUHU216HW,2013-11-26 20:17:00,
2013-11-26 14:22:00,27.5,0.0,30.25,NW,321,4.9,9.8,0,0.00,,,0.00,WUHU216HW,2013-11-26 20:22:00,
2013-11-26 14:27:00,27.5,0.0,30.25,North,1,6.6,9.4,0,0.00,,,0.00,WUHU216HW,2013-11-26 20:27:00,
2013-11-26 14:32:00,27.5,0.0,30.25,NNE,13,5.9,9.8,0,0.00,,,0.00,WUHU216HW,2013-11-26 20:32:00,
2013-11-26 14:37:00,27.4,0.0,30.25,West,271,6.1,10.5,0,0.00,,,0.00,WUHU216HW,2013-11-26 20:37:00,
2013-11-26 14:42:00,27.5,0.0,30.25,West,270,6.9,12.8,0,0.00,,,0.00,WUHU216HW,2013-11-26 20:42:00,
2013-11-26 14:47:00,27.5,0.0,30.25,SSW,203,7.8,12.8,0,0.00,,,0.00,WUHU216HW,2013-11-26 20:47:00,
2013-11-26 14:52:00,27.5,0.0,30.26,NNW,331,6.4,12.5,0,0.00,,,0.00,WUHU216HW,2013-11-26 20:52:00,
2013-11-26 14:57:00,27.5,0.0,30.26,NW,321,3.9,10.5,0,0.00,,,0.00,WUHU216HW,2013-11-26 20:57:00,
2013-11-26 15:02:00,27.7,0.0,30.26,NE,44,3.1,7.2,0,0.00,,,0.00,WUHU216HW,2013-11-26 21:02:00,
2013-11-26 15:07:00,27.5,0.0,30.26,NNW,342,5.9,8.7,0,0.00,,,0.00,WUHU216HW,2013-11-26 21:07:00,
2013-11-26 15:12:00,27.4,0.0,30.26,WSW,248,7.4,8.7,0,0.00,,,0.00,WUHU216HW,2013-11-26 21:12:00,
2013-11-26 15:17:00,27.2,0.0,30.27,North,0,6.7,8.5,0,0.00,,,0.00,WUHU216HW,2013-11-26 21:17:00,
2013-11-26 15:22:00,27.2,0.0,30.27,East,90,4.7,8.5,0,0.00,,,0.00,WUHU216HW,2013-11-26 21:22:00,
2013-11-26 15:27:00,27.0,0.0,30.27,NW,318,6.2,7.6,0,0.00,,,0.00,WUHU216HW,2013-11-26 21:27:00,
2013-11-26 15:32:00,27.0,0.0,30.27,NE,45,6.7,7.6,0,0.00,,,0.00,WUHU216HW,2013-11-26 21:32:00,
2013-11-26 15:37:00,26.8,0.0,30.27,NW,305,6.6,8.3,0,0.00,,,0.00,WUHU216HW,2013-11-26 21:37:00,
2013-11-26 15:42:00,26.8,0.0,30.26,North,6,5.3,8.5,0,0.00,,,0.00,WUHU216HW,2013-11-26 21:42:00,
2013-11-26 15:47:00,26.8,0.0,30.26,WNW,293,4.3,8.5,0,0.00,,,0.00,WUHU216HW,2013-11-26 21:47:00,
2013-11-26 15:52:00,26.6,0.0,30.27,North,0,6.7,7.8,0,0.00,,,0.00,WUHU216HW,2013-11-26 21:52:00,
2013-11-26 15:57:00,26.5,0.0,30.26,WSW,237,5.8,8.1,0,0.00,,,0.00,WUHU216HW,2013-11-26 21:57:00,
2013-11-26 16:02:00,26.5,0.0,30.27,NNW,328,5.5,8.1,0,0.00,,,0.00,WUHU216HW,2013-11-26 22:02:00,
2013-11-26 16:07:00,26.5,0.0,30.27,NW,311,2.5,7.2,0,0.00,,,0.00,WUHU216HW,2013-11-26 22:07:00,
2013-11-26 16:12:00,26.3,0.0,30.27,NNW,338,4.7,6.3,0,0.00,,,0.00,WUHU216HW,2013-11-26 22:12:00,
2013-11-26 16:17:00,26.3,0.0,30.27,North,0,3.4,6.3,0,0.00,,,0.00,WUHU216HW,2013-11-26 22:17:00,
2013-11-26 16:22:00,26.3,0.0,30.27,NNW,341,3.4,6.3,0,0.00,,,0.00,WUHU216HW,2013-11-26 22:22:00,
2013-11-26 16:27:00,26.1,0.0,30.27,NE,45,6.0,6.3,0,0.00,,,0.00,WUHU216HW,2013-11-26 22:27:00,
2013-11-26 16:32:00,25.9,0.0,30.27,WNW,293,4.7,6.5,0,0.00,,,0.00,WUHU216HW,2013-11-26 22:32:00,
2013-11-26 16:37:00,25.7,0.0,30.27,West,260,4.0,6.5,0,0.00,,,0.00,WUHU216HW,2013-11-26 22:37:00,
2013-11-26 16:42:00,25.7,0.0,30.27,WNW,293,3.1,5.6,0,0.00,,,0.00,WUHU216HW,2013-11-26 22:42:00,
2013-11-26 16:47:00,25.6,0.0,30.27,NW,317,2.8,5.6,0,0.00,,,0.00,WUHU216HW,2013-11-26 22:47:00,
2013-11-26 16:52:00,25.4,0.0,30.27,WNW,297,3.8,6.0,0,0.00,,,0.00,WUHU216HW,2013-11-26 22:52:00,
2013-11-26 16:57:00,25.2,0.0,30.27,NW,319,2.6,6.0,0,0.00,,,0.00,WUHU216HW,2013-11-26 22:57:00,
2013-11-26 17:02:00,25.0,0.0,30.27,East,90,2.9,4.9,0,0.00,,,0.00,WUHU216HW,2013-11-26 23:02:00,
2013-11-26 17:07:00,24.8,0.0,30.28,NW,314,2.5,4.0,0,0.00,,,0.00,WUHU216HW,2013-11-26 23:07:00,
2013-11-26 17:12:00,24.7,0.0,30.28,WNW,293,2.5,3.6,0,0.00,,,0.00,WUHU216HW,2013-11-26 23:12:00,
2013-11-26 17:17:00,24.5,0.0,30.28,NNW,335,2.8,4.5,0,0.00,,,0.00,WUHU216HW,2013-11-26 23:17:00,
2013-11-26 17:22:00,24.3,0.0,30.28,NNE,23,2.9,4.5,0,0.00,,,0.00,WUHU216HW,2013-11-26 23:22:00,
2013-11-26 17:27:00,24.1,0.0,30.29,West,270,4.0,4.7,0,0.00,,,0.00,WUHU216HW,2013-11-26 23:27:00,
2013-11-26 17:32:00,24.1,0.0,30.29,NW,316,1.9,4.7,0,0.00,,,0.00,WUHU216HW,2013-11-26 23:32:00,
2013-11-26 17:37:00,23.8,0.0,30.29,NW,316,1.6,4.0,0,0.00,,,0.00,WUHU216HW,2013-11-26 23:37:00,
2013-11-26 17:42:00,23.8,0.0,30.29,WNW,293,2.2,3.4,0,0.00,,,0.00,WUHU216HW,2013-11-26 23:42:00,
2013-11-26 17:47:00,23.6,0.0,30.29,WNW,300,1.7,3.4,0,0.00,,,0.00,WUHU216HW,2013-11-26 23:47:00,
2013-11-26 17:52:00,23.4,0.0,30.29,NW,317,2.4,4.7,0,0.00,,,0.00,WUHU216HW,2013-11-26 23:52:00,
2013-11-26 17:57:00,23.4,0.0,30.29,WNW,294,1.4,4.7,0,0.00,,,0.00,WUHU216HW,2013-11-26 23:57:00,
2013-11-26 18:02:00,23.0,0.0,30.29,NNW,333,1.9,3.8,0,0.00,,,0.00,WUHU216HW,2013-11-27 00:02:00,
2013-11-26 18:08:00,22.9,0.0,30.29,WSW,248,1.8,3.8,0,0.00,,,0.00,WUHU216HW,2013-11-27 00:08:00,
2013-11-26 18:13:00,22.9,0.0,30.29,NNW,338,0.9,3.8,0,0.00,,,0.00,WUHU216HW,2013-11-27 00:13:00,
2013-11-26 18:18:00,22.9,0.0,30.29,NNW,338,0.9,2.9,0,0.00,,,0.00,WUHU216HW,2013-11-27 00:18:00,
2013-11-26 19:00:00,22.0,0.0,30.31,WNW,293,0.9,0.9,0,0.00,,,0.00,WUHU216HW,2013-11-27 01:00:00,
2013-11-26 19:05:00,21.8,0.0,30.30,WNW,293,2.0,3.8,0,0.00,,,0.00,WUHU216HW,2013-11-27 01:05:00,
2013-11-26 19:10:00,21.8,0.0,30.30,WNW,301,2.2,4.0,0,0.00,,,0.00,WUHU216HW,2013-11-27 01:10:00,
2013-11-26 19:15:00,21.6,0.0,30.30,NW,315,2.5,4.0,0,0.00,,,0.00,WUHU216HW,2013-11-27 01:15:00,
2013-11-26 19:20:00,21.4,0.0,30.30,NNW,338,3.1,3.8,0,0.00,,,0.00,WUHU216HW,2013-11-27 01:20:00,
2013-11-26 19:25:00,21.2,0.0,30.30,NW,322,1.4,3.4,0,0.00,,,0.00,WUHU216HW,2013-11-27 01:25:00,
2013-11-26 19:30:00,21.1,0.0,30.30,NW,320,1.5,3.4,0,0.00,,,0.00,WUHU216HW,2013-11-27 01:30:00,
2013-11-26 19:35:00,20.9,0.0,30.30,NW,318,1.9,3.4,0,0.00,,,0.00,WUHU216HW,2013-11-27 01:35:00,
2013-11-26 19:40:00,20.9,0.0,30.30,North,0,2.2,2.5,0,0.00,,,0.00,WUHU216HW,2013-11-27 01:40:00,
2013-11-26 19:45:00,20.9,0.0,30.31,NW,313,1.9,3.4,0,0.00,,,0.00,WUHU216HW,2013-11-27 01:45:00,
2013-11-26 19:50:00,20.9,0.0,30.30,WNW,291,1.5,3.6,0,0.00,,,0.00,WUHU216HW,2013-11-27 01:50:00,
2013-11-26 19:55:00,20.5,0.0,30.31,North,0,1.8,3.6,0,0.00,,,0.00,WUHU216HW,2013-11-27 01:55:00,
2013-11-26 20:00:00,20.3,0.0,30.31,NNW,336,0.8,3.1,0,0.00,,,0.00,WUHU216HW,2013-11-27 02:00:00,
2013-11-26 20:05:00,20.3,0.0,30.30,NNW,337,2.1,3.8,0,0.00,,,0.00,WUHU216HW,2013-11-27 02:05:00,
2013-11-26 20:10:00,20.3,0.0,30.31,WNW,297,1.3,3.8,0,0.00,,,0.00,WUHU216HW,2013-11-27 02:10:00,
2013-11-26 20:15:00,20.2,0.0,30.31,NW,315,0.9,3.1,0,0.00,,,0.00,WUHU216HW,2013-11-27 02:15:00,
2013-11-26 20:20:00,20.2,0.0,30.31,North,0,2.0,3.1,0,0.00,,,0.00,WUHU216HW,2013-11-27 02:20:00,
2013-11-26 20:25:00,19.8,0.0,30.31,WNW,293,1.3,2.9,0,0.00,,,0.00,WUHU216HW,2013-11-27 02:25:00,
2013-11-26 20:30:00,19.8,0.0,30.31,NW,318,0.9,2.7,0,0.00,,,0.00,WUHU216HW,2013-11-27 02:30:00,
2013-11-26 20:35:00,19.8,0.0,30.32,NNW,338,2.2,2.7,0,0.00,,,0.00,WUHU216HW,2013-11-27 02:35:00,
2013-11-26 20:40:00,19.8,0.0,30.32,SW,225,0.9,2.5,0,0.00,,,0.00,WUHU216HW,2013-11-27 02:40:00,
2013-11-26 20:45:00,19.6,0.0,30.32,NNW,338,1.4,3.4,0,0.00,,,0.00,WUHU216HW,2013-11-27 02:45:00,
2013-11-26 20:50:00,19.6,0.0,30.32,North,0,1.6,3.4,0,0.00,,,0.00,WUHU216HW,2013-11-27 02:50:00,
2013-11-26 20:55:00,19.6,0.0,30.32,NW,315,3.4,3.4,0,0.00,,,0.00,WUHU216HW,2013-11-27 02:55:00,
2013-11-26 21:00:00,19.8,0.0,30.32,NNE,19,1.2,3.4,0,0.00,,,0.00,WUHU216HW,2013-11-27 03:00:00,
2013-11-26 21:05:00,19.8,0.0,30.32,NW,312,1.5,3.4,0,0.00,,,0.00,WUHU216HW,2013-11-27 03:05:00,
2013-11-26 21:10:00,19.8,0.0,30.32,North,352,1.7,3.4,0,0.00,,,0.00,WUHU216HW,2013-11-27 03:10:00,
2013-11-26 21:15:00,19.8,0.0,30.32,NW,315,1.6,3.4,0,0.00,,,0.00,WUHU216HW,2013-11-27 03:15:00,
2013-11-26 21:20:00,20.0,0.0,30.32,NNE,14,2.2,4.0,0,0.00,,,0.00,WUHU216HW,2013-11-27 03:20:00,
2013-11-26 21:25:00,20.0,0.0,30.32,SW,225,1.6,4.0,0,0.00,,,0.00,WUHU216HW,2013-11-27 03:25:00,
2013-11-26 21:30:00,20.0,0.0,30.32,North,2,1.2,2.7,0,0.00,,,0.00,WUHU216HW,2013-11-27 03:30:00,
2013-11-26 21:35:00,19.8,0.0,30.32,North,3,0.7,3.1,0,0.00,,,0.00,WUHU216HW,2013-11-27 03:35:00,
2013-11-26 21:40:00,19.8,0.0,30.32,WNW,293,1.1,3.1,0,0.00,,,0.00,WUHU216HW,2013-11-27 03:40:00,
2013-11-26 21:45:00,19.6,0.0,30.32,NE,37,1.0,1.8,0,0.00,,,0.00,WUHU216HW,2013-11-27 03:45:00,
2013-11-26 21:50:00,19.4,0.0,30.32,NNE,23,0.5,2.0,0,0.00,,,0.00,WUHU216HW,2013-11-27 03:50:00,
2013-11-26 21:55:00,19.4,0.0,30.32,NW,313,0.8,2.0,0,0.00,,,0.00,WUHU216HW,2013-11-27 03:55:00,
2013-11-26 22:00:00,19.4,0.0,30.32,WNW,293,0.9,2.5,0,0.00,,,0.00,WUHU216HW,2013-11-27 04:00:00,
2013-11-26 22:05:00,19.4,0.0,30.32,NW,315,1.3,2.5,0,0.00,,,0.00,WUHU216HW,2013-11-27 04:05:00,
2013-11-26 22:09:00,19.3,0.0,30.32,NW,315,2.0,2.2,0,0.00,,,0.00,WUHU216HW,2013-11-27 04:09:00,
2013-11-26 22:14:00,19.1,0.0,30.32,NNW,338,1.6,2.0,0,0.00,,,0.00,WUHU216HW,2013-11-27 04:14:00,
2013-11-26 22:19:00,19.1,0.0,30.32,WNW,303,1.9,3.4,0,0.00,,,0.00,WUHU216HW,2013-11-27 04:19:00,
2013-11-26 22:24:00,19.1,0.0,30.32,NW,315,2.2,3.4,0,0.00,,,0.00,WUHU216HW,2013-11-27 04:24:00,
2013-11-26 22:29:00,18.9,0.0,30.32,SW,225,3.1,3.1,0,0.00,,,0.00,WUHU216HW,2013-11-27 04:29:00,
2013-11-26 22:34:00,18.7,0.0,30.32,NW,304,1.0,3.1,0,0.00,,,0.00,WUHU216HW,2013-11-27 04:34:00,
2013-11-26 22:39:00,18.5,0.0,30.32,North,349,1.3,2.5,0,0.00,,,0.00,WUHU216HW,2013-11-27 04:39:00,
2013-11-26 22:44:00,18.5,0.0,30.32,NNW,347,2.1,4.0,0,0.00,,,0.00,WUHU216HW,2013-11-27 04:44:00,
2013-11-26 22:49:00,18.4,0.0,30.32,SW,225,2.0,4.0,0,0.00,,,0.00,WUHU216HW,2013-11-27 04:49:00,
2013-11-26 22:54:00,18.4,0.0,30.32,WNW,293,0.7,2.7,0,0.00,,,0.00,WUHU216HW,2013-11-27 04:54:00,
2013-11-26 22:59:00,18.2,0.0,30.32,NW,317,1.4,2.0,0,0.00,,,0.00,WUHU216HW,2013-11-27 04:59:00,
2013-11-26 23:01:00,18.2,0.0,30.32,NW,312,0.7,1.8,0,0.00,,,0.00,WUHU216HW,2013-11-27 05:01:00,
2013-11-26 23:02:00,18.2,0.0,30.32,WNW,293,1.3,2.0,0,0.00,,,0.00,WUHU216HW,2013-11-27 05:02:00,
2013-11-26 23:07:00,18.2,0.0,30.32,North,0,2.5,2.5,0,0.00,,,0.00,WUHU216HW,2013-11-27 05:07:00,
2013-11-26 23:12:00,18.0,0.0,30.32,NNW,338,2.0,2.5,0,0.00,,,0.00,WUHU216HW,2013-11-27 05:12:00,
2013-11-26 23:17:00,17.8,0.0,30.32,WNW,293,0.4,2.5,0,0.00,,,0.00,WUHU216HW,2013-11-27 05:17:00,
2013-11-26 23:22:00,17.6,0.0,30.32,NW,316,1.3,2.5,0,0.00,,,0.00,WUHU216HW,2013-11-27 05:22:00,
2013-11-26 23:27:00,17.6,0.0,30.32,WNW,282,1.2,2.5,0,0.00,,,0.00,WUHU216HW,2013-11-27 05:27:00,
2013-11-26 23:32:00,17.6,0.0,30.32,NNW,338,2.0,3.4,0,0.00,,,0.00,WUHU216HW,2013-11-27 05:32:00,
2013-11-26 23:37:00,17.6,0.0,30.32,North,0,1.8,3.4,0,0.00,,,0.00,WUHU216HW,2013-11-27 05:37:00,
2013-11-26 23:42:00,17.6,0.0,30.32,NNW,344,2.6,4.3,0,0.00,,,0.00,WUHU216HW,2013-11-27 05:42:00,
2013-11-26 23:47:00,17.6,0.0,30.32,NW,315,3.4,4.3,0,0.00,,,0.00,WUHU216HW,2013-11-27 05:47:00,
2013-11-26 23:52:00,17.6,0.0,30.32,North,0,3.6,4.7,0,0.00,,,0.00,WUHU216HW,2013-11-27 05:52:00,
2013-11-26 23:57:00,17.6,0.0,30.31,NNE,23,3.1,4.7,0,0.00,,,0.00,WUHU216HW,2013-11-27 05:57:00,